User: anonymous   Login
Location: Unspecified
(0.0000°N, 0.0000°E)
Time: 15:00:51
(UTC+00:00)
Language:

RESURS DK-1 - Orbit

View from above orbital plane
View from above orbital plane
View from above satellite
View from above satellite

Ground track
Ground track

The orbit data is extracted from the following two-line orbital elements,

1 29228U 06021A   15186.09307946  .00000308  00000-0  31195-4 0  9995
2 29228 069.9388 111.5697 0005556 321.9408 162.3743 15.01527301501036
Epoch (UTC): 05 July 2015 02:14:02
Eccentricity: 0.0005556
inclination: 69.9388°
perigee height: 558 km
apogee height: 566 km
right ascension of ascending node: 111.5697°
argument of perigee: 321.9408°
revolutions per day: 15.01527301
mean anomaly at epoch: 162.3743°
orbit number at epoch: 50103

The dashed part of the orbit path shows where the satellite is in the earth's shadow,  

DLR